Find Starlink 32762

NORAD ID: 62748 Int'l Des: 2025-014 Owner: SPXS Country: US Constellation: starlink operational
LEOCIRCULAR

現在のビュー

3D地球を読み込み中...

About Starlink 32762

Starlink 32762 (NORAD 62748) is a starlink constellation satellite (v2 mini) launched Jan 21, 2025 by SPXS of US. It operates in LEO, CIRCULAR orbit with a mass of 730.00 kg.

Starlink 32762について

説明を読み込み中...

次回通過

Passes for default location (London). Set your location on the main map for personalized predictions.

高度履歴

Loading altitude history...

軌道要素

1 62748U 25014P 26167.12208448 .00024636 00000-0 90167-3 0 9997
2 62748 42.9999 321.7574 0001662 270.6586 89.4075 15.27584257 78272
Epoch: Jun 16, 2026 • Age: 19 hours

現在のステータス

高度 485.2 km
速度 7.63 km/s
衛星直下点 33.96°N, 148.51°W
打ち上げ日 Jan 21, 2025
運用期間 1.3 years
タイプ internet

技術仕様

分類 Payload
質量 730.00 kg
乾燥質量 700.00 kg
総質量 730.00 kg
長さ 0.30 m
直径 4.10 m
スパン 29.00 m
形状 Box + pan
製造者 SPXS
バスタイプ Starlink V2M
フェーズステータス In Orbit
所有者/国 SPXS/US

Most Searched